www.pogodaiklimat.ru

Погода и климат >> Архив погоды >> Боливия >> Камири


ПОГОДА в Камири

  • Прогноз погоды в Камири
  • Монитор погоды в Камири

АРХИВ ПОГОДЫ в Камири

Время (UTC), дата Ветер
(напр.,м/с)
 
Видим.   Явления Облачность Т
(С)
Тd
(С)
f
(%)
Тe
(С)
Тes
(С)
Комфортность P
(гПа)
Po
(гПа)
Тmin
(С)
Tmax
(С)
R
(мм)
R24
(мм)
S
(см)
12 12.06 штиль 0 20 км 4/4 900 м
[Cu hum]
+17.3 +16.8 97 +17 +18 1007.7 919.9 +17.0
15 12.06 С 3 20 км 9/0
[Cs]
+25.0 +20.0 74 +31 +38 очень
душно
1007.9 919.8
18 12.06 С 3 20 км 8/0
[Cs]
+28.7 +17.7 51 +33 +39 очень
душно
1003.7 917.0
21 12.06 С 2 20 км 6/0
[Cs]
+29.2 +19.7 57 +35 +36 очень
душно
1002.6 916.1 +29.7
12 13.06 штиль 0 100 м туман ?/? +17.7 +17.7 100 +18 +18 1009.4 920.0 +17.3
15 13.06 С 2 20 км 1/1 1000 м
[Cu Sc]
+23.3 +20.4 84 +31 +40 очень
душно
1007.5 920.9
18 13.06 штиль 0 50 км ясно +28.5 +19.2 57 +34 +46 очень
душно
1003.5 917.2
21 13.06 штиль 0 50 км ясно +30.4 +20.0 54 +37 +37 очень
душно
1004.0 917.2 +31.5
12 14.06 штиль 0 2000 м дымка {туман} 10/10 120 м
[Frnb]
+17.5 +17.2 98 +17 +17 1010.9 922.6 +17.5
15 14.06 штиль 0 3000 м дымка 10/10 150 м
[Frnb]
+20.0 +19.3 96 +23 +23 комфорт 1013.1 923.7
18 14.06 штиль 0 20 км 10/10 700 м
[Sc]
+22.1 +19.8 87 +28 +28 душно 1010.3 922.1
21 14.06 штиль 0 20 км 10/10 900 м
[Sc]
+22.6 +18.8 79 +28 +28 душно 1009.5 921.0 +22.7
12 15.06 штиль 0 2000 м слаб. морось 10/10 150 м
[Frnb]
+19.6 +19.3 98 +22 +22 комфорт 1010.7 922.1 +19.5 0.2
15 15.06 штиль 0 15 км 9/9 400 м
[Sc]
+22.0 +20.5 91 +28 +29 душно 1010.3 922.4
18 15.06 штиль 0 20 км 10/10 700 м
[Sc]
+23.7 +20.3 81 +29 +29 душно 1008.5 920.0
21 15.06 штиль 0 3000 м слаб. дождь 10/10 500 м
[Sc]
+22.9 +21.3 91 +30 +30 очень
душно
1008.8 920.2 +23.7
12 16.06 штиль 0 2000 м дымка 10/10 90 м
[Frnb]
+16.4 +15.9 97 +16 +16 1019.7 929.9 +16.4 6
15 16.06 штиль 0 2000 м слаб. морось 10/10 120 м
[Frnb]
+13.0 +12.2 95 +12 +12 1021.3 931.2
18 16.06 штиль 0 2000 м слаб. морось 10/10 120 м
[Frnb]
+13.0 +12.2 95 +12 +12 1017.7 928.2 0.6
21 16.06 штиль 0 4000 м осадки на расстоянии {морось} туман 10/10 120 м
[Frnb]
+13.0 +13.3 100 +12 +12 1018.1 927.9 +18.8
12 17.06 штиль 0 2000 м слаб. морось 10/10 90 м
[Frnb]
+10.3 +9.9 97 +9 +9 1020.5 929.8 +10.0 1
15 17.06 штиль 0 2000 м слаб. морось 10/9 90 м
[Frnb As op]
+11.7 +10.4 92 +11 +11 1021.2 929.9
18 17.06 штиль 0 2000 м дымка туман 10/10 90 м
[Frnb]
+12.9 +9.5 80 +12 +12 1016.2 925.6 0.1
21 17.06 штиль 0 2000 м дымка {туман} 10/10 90 м
[Frnb]
+13.0 +12.2 95 +12 +12 1013.3 923.2 +13.1
12 18.06 штиль 0 100 м туман ?/? +13.1 +12.9 99 +13 +13 1013.3 922.6 +13.0 0.1
15 18.06 штиль 0 3000 м осадки на расстоянии {туман} 10/10 240 м
[Frnb]
+14.6 +14.1 97 +14 +14 1014.4 924.8
18 18.06 Ю 2 5000 м осадки на расстоянии 10/9 300 м
[Sc As op]
+16.8 +15.2 90 +17 +17 1012.0 923.4
21 18.06 Ю 2 5000 м осадки на расстоянии 10/9 240 м
[Sc As op]
+15.8 +13.6 87 +16 +16 1013.9 923.1 +17.1

 

Местоположение метеостанции Камири (Боливия): широта -20.00 долгота -63.53 высота над уровнем моря 798 м.

В архиве по умолчанию представлена погода в Камири за последнюю неделю. Архивные данные за месяц целиком и за предыдущие месяцы, начиная с января 2011 года, Вы можете получить, выбрав интересующий диапазон дат из раскрывающегося списка и нажав кнопку "Ввод!".


*Определитесь, кто Вы:
робот инопланетянин человек

Внимание! Время в таблицах - всемирное. Для получения местного времени необходимо прибавить поправку, которая равна -4 ч.

Смотрите также архив погоды в соседних городах и на ближайших метеорологических станциях:

Погода в Монтеагудо (Боливия) (47 км)
Погода в Вилья-Монтесе (Боливия) (139 км)
Погода в Валье Гранде (Боливия) (181 км)
Погода в Тарихе (Боливия) (211 км)
Погода в Сукре (Боливия) (216 км)
Погода в Якуибе (Боливия) (217 км)
Погода в Потоси (Боливия) (236 км)
Погода в Санта-Крусе (Боливия) (247 км)
Погода в Виру-Виру (Боливия) (267 км)
Погода в Тартагале (Аргентина) (293 км)

Пояснения к столбцам:

Ветер - указаны скорость ветра в м/с - средняя за 10 мин, порывы в срок и между сроками (в фигурных скобках) и направление, откуда дует ветер: С - северный, СВ - северо-восточный, В - восточный, ЮВ - юго-восточный, Ю - южный, ЮЗ - юго-западный, З - западный, СЗ - северо-западный.
Видимость - горизонтальная дальность видимости в метрах или километрах. При видимости от 1 до 10 км при отсутствии осадков обычно наблюдается дымка, при ухудшении видимости до 1 км и менее - туман. В сухую погоду видимость может ухудшаться дымом, пылью или мглою.
Явления - указаны атмосферные явления, наблюдавшиеся в срок или в последний час перед сроком; фигурными скобками обозначены явления, наблюдавшиеся между сроками (за 1-3 часа до срока); квадратными скобками обозначены град или гололедные отложения с указанием их диаметра в мм.
Облачность - указаны через наклонную черту общая и нижняя облачность в баллах и высота нижней границы облаков в метрах; квадратными скобками обозначены формы облаков: Ci - перистые, Cs - перисто-слоистые, Cc - перисто-кучевые, Ac - высококучевые, As - высокослоистые, Sc - слоисто-кучевые, Ns - слоисто-дождевые, Cu - кучевые, Cb - кучево-дождевые. Подробнее классификацию облаков см. в Атласе облаков (PDF).
T - Температура воздуха - температура, измеренная на высоте 2 м над землей.
Td - Температура точки росы - температура, при понижении до которой содержащийся в воздухе водяной пар достигнет насыщения.
f - Относительная влажность воздуха - влажноcть воздуха, измеренная на высоте 2 м над землей.
Te - Эффективная температура - температура, которую ощущает одетый по сезону человек в тени. Характеристика душности погоды. При расчете учитывается влияние влажности воздуха и скорости ветра на теплоощущения человека.
Tes - Эффективная температура на солнце - температура, которую ощущает человек, с поправкой на солнечный нагрев. Характеристика знойности погоды. Зависит от высоты солнца над горизонтом, облачности и скорости ветра. Ночью, в пасмурную погоду, а также при ветре 12 м/с и более поправка равна нулю.
P - Атмосферное давление - приведенное к уровню моря атмосферное давление.
Po - Атмосферное давление - измеренное на уровне метеостанции атмосферное давление.
Tmin - Минимальная температура - минимум температуры воздуха на высоте 2 м над землей.
Tmax - Максимальная температура - максимум температуры воздуха на высоте 2 м над землей.
R - Количество осадков - Количество выпавших осадков за период времени, мм. При наведении курсора мыши на число - период времени, за который выпало указанное количество осадков.
R24 - Количество осадков - Количество выпавших осадков за 24 часа, мм.
S - Снежный покров - Высота снежного покрова, см. При наведении курсора мыши на число - состояние снежного покрова и степень покрытия местности в баллах.